Tiempo cada hora Barsuchina

Hoy, 6 Marzo, Sábado

Tiempo Temperatura Precipitaciones Viento Presión Humedad
00:00 -3°C° 0.1 mm 1 mps 750 mmHg 82%
01:00 -3°C° 0.1 mm 1 mps 750 mmHg 83%
02:00 -5°C° 0.1 mm 2 mps 751 mmHg 85%
03:00 -6°C° 0 mm 2 mps 751 mmHg 83%
04:00 -6°C° 0 mm 2 mps 751 mmHg 81%
05:00 -6°C° 0 mm 2 mps 750 mmHg 79%
06:00 -6°C° 0 mm 2 mps 751 mmHg 75%
07:00 -6°C° 0 mm 2 mps 751 mmHg 70%
08:00 -7°C° 0 mm 3 mps 752 mmHg 65%
09:00 -6°C° 0 mm 3 mps 752 mmHg 60%
10:00 -5°C° 0 mm 3 mps 752 mmHg 56%
11:00 -4°C° 0 mm 4 mps 752 mmHg 51%
12:00 -3°C° 0 mm 4 mps 751 mmHg 47%
13:00 -4°C° 0 mm 5 mps 751 mmHg 43%
14:00 -2°C° 0 mm 5 mps 750 mmHg 39%
15:00 -2°C° 0 mm 5 mps 750 mmHg 41%
16:00 -4°C° 0 mm 6 mps 749 mmHg 43%
17:00 -4°C° 0 mm 6 mps 748 mmHg 45%
18:00 -4°C° 0 mm 6 mps 748 mmHg 51%
19:00 -4°C° 0 mm 6 mps 747 mmHg 56%
20:00 -4°C° 0 mm 7 mps 746 mmHg 61%
21:00 -4°C° 0 mm 7 mps 745 mmHg 62%
22:00 -4°C° 0 mm 7 mps 744 mmHg 62%
23:00 -5°C° 0 mm 8 mps 743 mmHg 62%

Mañana, 7 Marzo, Domingo

Tiempo Temperatura Precipitaciones Viento Presión Humedad
00:00 -5°C° 0 mm 8 mps 741 mmHg 68%
01:00 -4°C° 0 mm 9 mps 740 mmHg 74%
02:00 -4°C° 0 mm 9 mps 739 mmHg 81%
03:00 -4°C° 0.4 mm 9 mps 738 mmHg 86%
04:00 -4°C° 0.4 mm 10 mps 736 mmHg 91%
05:00 -4°C° 0.4 mm 10 mps 735 mmHg 96%
06:00 -5°C° 0.5 mm 10 mps 736 mmHg 82%
07:00 -8°C° 0.5 mm 10 mps 736 mmHg 68%
08:00 -9°C° 0.5 mm 10 mps 737 mmHg 54%
09:00 -8°C° 0 mm 10 mps 737 mmHg 51%
10:00 -8°C° 0 mm 9 mps 738 mmHg 47%
11:00 -6°C° 0 mm 8 mps 738 mmHg 43%
12:00 -6°C° 0 mm 9 mps 738 mmHg 44%
13:00 -5°C° 0 mm 9 mps 738 mmHg 44%
14:00 -5°C° 0 mm 10 mps 737 mmHg 45%
15:00 -5°C° 0 mm 10 mps 737 mmHg 53%
16:00 -5°C° 0 mm 9 mps 736 mmHg 61%
17:00 -6°C° 0 mm 9 mps 736 mmHg 69%
18:00 -8°C° 0.1 mm 9 mps 736 mmHg 71%
19:00 -8°C° 0.1 mm 9 mps 736 mmHg 73%
20:00 -9°C° 0.1 mm 9 mps 737 mmHg 75%
21:00 -10°C° 0.1 mm 8 mps 738 mmHg 70%
22:00 -11°C° 0.1 mm 7 mps 738 mmHg 64%
23:00 -11°C° 0.1 mm 6 mps 739 mmHg 59%

Pasado mañana, 8 Marzo, Lunes

Tiempo Temperatura Precipitaciones Viento Presión Humedad
00:00 -11°C° 0 mm 5 mps 740 mmHg 60%
01:00 -11°C° 0 mm 5 mps 740 mmHg 61%
02:00 -10°C° 0 mm 4 mps 741 mmHg 62%
03:00 -10°C° 0 mm 4 mps 741 mmHg 63%
04:00 -10°C° 0 mm 4 mps 741 mmHg 64%
05:00 -10°C° 0 mm 4 mps 741 mmHg 64%
06:00 -10°C° 0 mm 4 mps 742 mmHg 65%
07:00 -10°C° 0 mm 4 mps 742 mmHg 66%
08:00 -11°C° 0 mm 5 mps 743 mmHg 67%
09:00 -10°C° 0 mm 5 mps 743 mmHg 67%
10:00 -10°C° 0 mm 5 mps 743 mmHg 66%
11:00 -8°C° 0 mm 5 mps 744 mmHg 66%
12:00 -8°C° 0 mm 5 mps 744 mmHg 65%
13:00 -7°C° 0 mm 5 mps 745 mmHg 63%
14:00 -7°C° 0 mm 5 mps 745 mmHg 62%
15:00 -8°C° 0 mm 5 mps 746 mmHg 63%
16:00 -8°C° 0 mm 5 mps 746 mmHg 64%
17:00 -8°C° 0 mm 5 mps 746 mmHg 65%
18:00 -9°C° 0 mm 4 mps 747 mmHg 67%
19:00 -9°C° 0 mm 4 mps 747 mmHg 69%
20:00 -9°C° 0 mm 4 mps 748 mmHg 72%
21:00 -9°C° 0 mm 3 mps 749 mmHg 73%
22:00 -9°C° 0 mm 3 mps 749 mmHg 73%
23:00 -10°C° 0 mm 3 mps 750 mmHg 74%

9 Marzo, Martes

Tiempo Temperatura Precipitaciones Viento Presión Humedad
00:00 -9°C° 0 mm 2 mps 750 mmHg 76%
01:00 -10°C° 0 mm 2 mps 750 mmHg 77%
02:00 -10°C° 0 mm 2 mps 751 mmHg 79%
03:00 -10°C° 0 mm 2 mps 751 mmHg 79%
04:00 -10°C° 0 mm 2 mps 751 mmHg 79%
05:00 -10°C° 0 mm 2 mps 751 mmHg 79%
06:00 -12°C° 0 mm 3 mps 751 mmHg 77%
07:00 -10°C° 0 mm 3 mps 751 mmHg 74%
08:00 -10°C° 0 mm 3 mps 752 mmHg 71%
09:00 -10°C° 0 mm 4 mps 752 mmHg 64%
10:00 -8°C° 0 mm 4 mps 752 mmHg 58%
11:00 -7°C° 0 mm 5 mps 752 mmHg 51%
12:00 -6°C° 0 mm 5 mps 751 mmHg 47%
13:00 -5°C° 0 mm 6 mps 751 mmHg 43%
14:00 -4°C° 0 mm 6 mps 751 mmHg 39%
15:00 -4°C° 0 mm 6 mps 751 mmHg 41%
16:00 -4°C° 0 mm 5 mps 751 mmHg 43%
17:00 -4°C° 0 mm 4 mps 751 mmHg 45%
18:00 -4°C° 0 mm 4 mps 751 mmHg 48%
19:00 -5°C° 0 mm 4 mps 751 mmHg 52%
20:00 -7°C° 0 mm 4 mps 751 mmHg 55%
21:00 -7°C° 0 mm 4 mps 751 mmHg 57%
22:00 -7°C° 0 mm 4 mps 751 mmHg 58%
23:00 -7°C° 0 mm 4 mps 751 mmHg 60%

10 Marzo, Miércoles

Tiempo Temperatura Precipitaciones Viento Presión Humedad
00:00 -8°C° 0 mm 4 mps 750 mmHg 62%
01:00 -8°C° 0 mm 4 mps 750 mmHg 64%
02:00 -8°C° 0 mm 4 mps 749 mmHg 65%
03:00 -8°C° 0 mm 4 mps 749 mmHg 67%
04:00 -8°C° 0 mm 4 mps 749 mmHg 69%
05:00 -8°C° 0 mm 4 mps 748 mmHg 71%
06:00 -8°C° 0 mm 4 mps 748 mmHg 70%
07:00 -8°C° 0 mm 4 mps 748 mmHg 70%
08:00 -7°C° 0 mm 4 mps 747 mmHg 69%
09:00 -5°C° 0 mm 4 mps 747 mmHg 66%
10:00 -4°C° 0 mm 4 mps 747 mmHg 64%
11:00 -3°C° 0 mm 4 mps 747 mmHg 61%
12:00 -2°C° 0 mm 4 mps 746 mmHg 63%
13:00 -1°C° 0 mm 5 mps 746 mmHg 65%
14:00 -1°C° 0 mm 5 mps 745 mmHg 67%
15:00 -1°C° 0 mm 5 mps 745 mmHg 70%
16:00 -1°C° 0 mm 4 mps 744 mmHg 72%
17:00 -1°C° 0 mm 4 mps 744 mmHg 74%
18:00 -2°C° 0 mm 4 mps 743 mmHg 80%
19:00 -2°C° 0 mm 4 mps 743 mmHg 85%
20:00 -3°C° 0 mm 4 mps 742 mmHg 91%
21:00 -3°C° 0.1 mm 4 mps 742 mmHg 93%
22:00 -2°C° 0.1 mm 5 mps 741 mmHg 94%
23:00 -2°C° 0.1 mm 5 mps 740 mmHg 96%

11 Marzo, Jueves

Tiempo Temperatura Precipitaciones Viento Presión Humedad
00:00 -2°C° 0.2 mm 5 mps 740 mmHg 96%
01:00 -3°C° 0.2 mm 6 mps 739 mmHg 96%
02:00 -2°C° 0.2 mm 6 mps 738 mmHg 96%
03:00 -2°C° 0.2 mm 6 mps 737 mmHg 96%
04:00 -2°C° 0.2 mm 7 mps 735 mmHg 96%
05:00 -2°C° 0.2 mm 7 mps 734 mmHg 96%
06:00 -2°C° 0.5 mm 8 mps 733 mmHg 96%
07:00 -2°C° 0.5 mm 8 mps 732 mmHg 96%
08:00 -2°C° 0.5 mm 8 mps 731 mmHg 96%
09:00 -1°C° 0.5 mm 8 mps 730 mmHg 95%
10:00 0°C° 0.5 mm 8 mps 729 mmHg 94%
11:00 +1°C° 0.5 mm 8 mps 728 mmHg 92%
12:00 +1°C° 0.7 mm 8 mps 728 mmHg 92%
13:00 +1°C° 0.7 mm 8 mps 727 mmHg 92%
14:00 +1°C° 0.7 mm 8 mps 726 mmHg 92%
15:00 +2°C° 0.9 mm 8 mps 725 mmHg 92%
16:00 +2°C° 0.9 mm 8 mps 724 mmHg 91%
17:00 +4°C° 0.9 mm 8 mps 723 mmHg 91%
18:00 +2°C° 1.2 mm 8 mps 723 mmHg 91%
19:00 +3°C° 1.2 mm 7 mps 723 mmHg 91%
20:00 +3°C° 1.2 mm 7 mps 723 mmHg 91%
21:00 +2°C° 0.1 mm 7 mps 723 mmHg 89%
22:00 +2°C° 0.1 mm 7 mps 723 mmHg 88%
23:00 +2°C° 0.1 mm 7 mps 723 mmHg 86%
Mostrar más

Necesitamos Su Consentimiento

Meteoprog y nuestros Proveedores de Servicios pueden almacenar y acceder a sus datos personales como cookies, identificadores de dispositivo u otras tecnologías similares de su dispositivo y procesar dichos datos para personalizar contenido y anuncios, además de ofrecer funciones de redes sociales y analizar el tráfico.

  • Almacenar y/o acceder a información en su dispositivo

    Se puede almacenar o acceder a cookies, identificadores de dispositivo u otra información de su dispositivo para los fines anteriormente indicados.

  • Anuncios y contenido personalizados, medición de anuncios y contenido, percepciones del público, y desarrollo de productos

    Los anuncios y el contenido pueden personalizarse en base a su perfil. Se pueden añadir más datos para personalizar mejor los anuncios y contenidos. Se puede medir el rendimiento de los anuncios y contenidos. Se puede obtener la percepción sobre el público que ha visto los anuncios y contenidos. Dichos datos pueden usarse para desarrollar o mejorar la experiencia del usuario, sistemas y software.

Al hacer clic en ‘Estoy De Acuerdo’ usted permitirá el uso de las cookies, identificadores de dispositivo, balizas web u otras tecnologías similares indicadas. Su configuración puede cambiarse desde el navegador de su dispositivo.

Para ciertos fines, los intereses legítimos pueden ser considerados por encima del consentimiento. Puede leer más sobre ello en nuestra Política de Privacidad y Cookies.